Flag for Colombia Weather past 2 weeks in Villavicencio, Colombia

Now
57 °F

Scattered showers. Passing clouds.


Feels Like: 56 °F
Forecast: 67 / 86 °F
Wind: 7 mph from East

Location: Bogota / Eldorado

Current Time: Jul 3, 2015 at 9:11:41 PM

Latest Report: Jul 3, 2015 at 8:00 PM


Visibility: N/A

Pressure: 30.29 "Hg

Humidity: 82%

Dew point: 52 °F

Location of VillavicencioLocation

Historic Weather in Villavicencio — Graph

°F

Villavicencio temperature yesterday

Maximum temperature yesterday: 68 °F (at 1:00 PM)
Minimum temperature yesterday: 48 °F (at 11:00 PM)
Average temperature yesterday: 57 °F

Past Weeks' High & Low Weather Summary

 TemperatureHumidityPressure
High81 °F (Jun 22, 2:00 PM)100% (Jun 22, 6:00 AM)30.43 "Hg (Jun 22, 6:00 AM)
Low45 °F (Jun 30, 4:00 AM)37% (Jul 2, 12:00 PM)29.97 "Hg (Jun 22, 2:00 PM)
Average57 °F71%30.35 "Hg
* Reported Jun 18 8:00 PM — Jul 3 8:00 PM, Villavicencio, Weather by CustomWeather, © 2015

Note: Actual official high and low records may vary slightly from our data, if they occured in-between our weather recording intervals... More about our weather records

Advertising

Villavicencio weather history for previous 24 hours

 ConditionsComfort  
Time TempWeatherWind HumidityBarometerVisibility
8:00 PM
Fri, Jul 3
57 °FScattered showers. Passing clouds.7 mph82%30.29 "HgN/A
7:00 PM57 °FScattered showers. Passing clouds.5 mph82%30.28 "HgN/A
6:00 PM63 °FScattered showers. Partly sunny.14 mph59%30.26 "HgN/A
5:00 PM64 °FScattered clouds.12 mphN/A30.24 "HgN/A
4:00 PM66 °FBroken clouds.12 mph52%30.24 "HgN/A
3:00 PM66 °FPartly sunny.14 mph49%30.25 "HgN/A
2:00 PM68 °FScattered clouds.14 mph49%30.27 "HgN/A
1:00 PM66 °FPartly sunny.12 mph52%30.30 "HgN/A
12:00 PM64 °FPartly sunny.14 mph49%30.32 "HgN/A
11:00 AM64 °FPartly sunny.16 mph49%30.34 "HgN/A
10:00 AM63 °FScattered showers. Partly sunny.14 mph56%30.35 "HgN/A
9:00 AM63 °FPartly sunny.9 mph56%30.33 "HgN/A
8:00 AM59 °FScattered clouds.9 mph68%30.33 "HgN/A
7:00 AM55 °FScattered clouds.7 mph77%30.32 "HgN/A
6:00 AM48 °FScattered clouds.2 mph94%30.30 "HgN/A
5:00 AM48 °FPassing clouds.3 mph87%30.30 "HgN/A
4:00 AM50 °FPassing clouds.2 mph88%30.30 "HgN/A
3:00 AM50 °FPassing clouds.7 mph94%30.30 "HgN/A
2:00 AM50 °FPassing clouds.2 mph88%30.31 "HgN/A
1:00 AM52 °FPassing clouds.7 mph88%30.32 "HgN/A
12:00 AM48 °FPassing clouds.2 mph94%30.34 "HgN/A
11:00 PM
Thu, Jul 2
48 °FPassing clouds.5 mph87%30.36 "HgN/A
10:00 PM50 °FPassing clouds.2 mph88%30.35 "HgN/A
9:00 PM52 °FPassing clouds.5 mph82%30.36 "HgN/A
Weather by CustomWeather, © 2015

See weather overviewHow to use our weather pages